Location: Washington
(38.8950°N, 77.0367°W)
Time: 22:20:16
(UTC-04:00)

N. Korean satellite - Visible Passes

Search period start: 29 March 2015 00:00
Search period end: 08 April 2015 00:00
Orbit: 475 x 542 km, 97.3° (Epoch: 28 March)

Date Brightness Start Highest point End Pass type
(mag) Time Alt. Az. Time Alt. Az. Time Alt. Az.
29 Mar 6.7 20:12:29 10° SSE 20:16:15 60° ENE 20:19:58 10° N visible
30 Mar 7.3 19:55:56 10° SE 19:59:25 36° ENE 20:02:54 10° N visible
30 Mar 9.7 21:31:30 10° SW 21:33:34 14° W 21:35:27 10° WNW visible
31 Mar 9.2 21:13:30 10° SSW 21:16:31 22° W 21:19:25 10° NW visible
01 Apr 8.3 20:56:00 10° SSW 20:59:30 34° W 21:02:57 10° NNW visible
02 Apr 7.3 20:38:47 10° S 20:42:31 59° W 20:46:12 10° NNW visible
03 Apr 6.6 20:21:48 10° SSE 20:25:33 81° E 20:29:16 10° N visible
04 Apr 6.9 20:04:59 10° SSE 20:08:36 47° ENE 20:12:09 10° N visible
05 Apr 9.6 21:23:12 10° SW 21:25:40 16° W 21:28:00 10° NW visible
06 Apr 8.8 21:05:19 10° SSW 21:08:30 26° W 21:11:37 10° NW visible
07 Apr 7.9 20:47:48 10° S 20:51:22 43° W 20:54:53 10° NNW visible
